contact:dominique.lefevre@mio.osupytheas.fr, maurice.libes@osupytheas.fr, didier.mallarino@osupytheas.fr
Project:EMSO http://www.emso-fr.org/EMSO-France
Depth: 2436.0 m
Title:EMSO Ligure Ouest : Data MII capteur MICROCAT
DateTime_Computer,Latitude,Longitude,Temperature,Conductivity,Pressure,DateTime_Instrument
DateTime_Computer,Latitude,Longitude,degC,S m-1,dbar,DateTime_Instrument
2022-01-07T00:02:27Z,42.805,6.029,13.3024,4.60101,2469.97,2022-1-07T02:03:57Z
2022-01-07T00:05:30Z,42.805,6.029,13.3014,4.60107,2469.97,2022-1-07T02:07:00Z
2022-01-07T00:08:33Z,42.805,6.029,13.3031,4.60099,2469.947,2022-1-07T02:10:03Z
2022-01-07T00:11:36Z,42.805,6.029,13.3024,4.60112,2469.97,2022-1-07T02:13:07Z
2022-01-07T00:14:39Z,42.805,6.029,13.3020,4.60086,2469.97,2022-1-07T02:16:10Z
2022-01-07T00:17:42Z,42.805,6.029,13.3016,4.60067,2469.984,2022-1-07T02:19:13Z
2022-01-07T00:20:46Z,42.805,6.029,13.3019,4.60074,2469.97,2022-1-07T02:22:16Z
2022-01-07T00:23:49Z,42.805,6.029,13.3016,4.60095,2469.97,2022-1-07T02:25:19Z
2022-01-07T00:26:52Z,42.805,6.029,13.3021,4.60072,2469.96,2022-1-07T02:28:22Z
2022-01-07T00:29:55Z,42.805,6.029,13.3014,4.60105,2469.97,2022-1-07T02:31:25Z
2022-01-07T00:32:58Z,42.805,6.029,13.3026,4.60092,2469.984,2022-1-07T02:34:28Z
2022-01-07T00:36:01Z,42.805,6.029,13.3015,4.60086,2469.97,2022-1-07T02:37:31Z
2022-01-07T00:39:04Z,42.805,6.029,13.3019,4.60094,2469.97,2022-1-07T02:40:35Z
2022-01-07T00:42:07Z,42.805,6.029,13.3027,4.60077,2469.96,2022-1-07T02:43:38Z
2022-01-07T00:45:11Z,42.805,6.029,13.3015,4.60079,2469.947,2022-1-07T02:46:41Z
2022-01-07T00:48:14Z,42.805,6.029,13.3020,4.60078,2469.97,2022-1-07T02:49:44Z
2022-01-07T00:51:17Z,42.805,6.029,13.3037,4.60091,2469.97,2022-1-07T02:52:47Z
2022-01-07T00:54:20Z,42.805,6.029,13.3026,4.60089,2469.947,2022-1-07T02:55:50Z
2022-01-07T00:57:23Z,42.805,6.029,13.3024,4.60085,2469.947,2022-1-07T02:58:53Z
2022-01-07T01:00:26Z,42.805,6.029,13.3014,4.60092,2469.97,2022-1-07T03:01:56Z
2022-01-07T01:03:29Z,42.805,6.029,13.3015,4.60087,2469.937,2022-1-07T03:05:00Z
2022-01-07T01:06:32Z,42.805,6.029,13.3015,4.60063,2469.923,2022-1-07T03:08:03Z
2022-01-07T01:09:35Z,42.805,6.029,13.3011,4.60066,2469.96,2022-1-07T03:11:06Z
2022-01-07T01:12:39Z,42.805,6.029,13.3023,4.60072,2469.97,2022-1-07T03:14:09Z
2022-01-07T01:15:42Z,42.805,6.029,13.3016,4.60060,2469.947,2022-1-07T03:17:12Z
2022-01-07T01:18:45Z,42.805,6.029,13.3008,4.60059,2469.923,2022-1-07T03:20:15Z
2022-01-07T01:21:48Z,42.805,6.029,13.3011,4.60057,2469.947,2022-1-07T03:23:18Z
2022-01-07T01:24:51Z,42.805,6.029,13.3013,4.60050,2469.937,2022-1-07T03:26:21Z
2022-01-07T01:27:54Z,42.805,6.029,13.3009,4.60060,2469.96,2022-1-07T03:29:24Z
2022-01-07T01:30:57Z,42.805,6.029,13.3021,4.60102,2469.937,2022-1-07T03:32:28Z
2022-01-07T01:34:00Z,42.805,6.029,13.3015,4.60074,2469.947,2022-1-07T03:35:31Z
2022-01-07T01:37:03Z,42.805,6.029,13.3024,4.60099,2469.937,2022-1-07T03:38:34Z
2022-01-07T01:40:07Z,42.805,6.029,13.3015,4.60092,2469.947,2022-1-07T03:41:37Z
2022-01-07T01:43:10Z,42.805,6.029,13.3022,4.60055,2469.96,2022-1-07T03:44:40Z
2022-01-07T01:46:13Z,42.805,6.029,13.3011,4.60057,2469.96,2022-1-07T03:47:43Z
2022-01-07T01:49:16Z,42.805,6.029,13.3015,4.60086,2469.97,2022-1-07T03:50:46Z
2022-01-07T01:52:19Z,42.805,6.029,13.3015,4.60096,2469.947,2022-1-07T03:53:49Z
2022-01-07T01:55:22Z,42.805,6.029,13.3016,4.60065,2469.937,2022-1-07T03:56:53Z
2022-01-07T01:58:25Z,42.805,6.029,13.3049,4.60096,2469.96,2022-1-07T03:59:56Z
2022-01-07T02:01:28Z,42.805,6.029,13.3021,4.60091,2469.947,2022-1-07T04:02:59Z
2022-01-07T02:04:32Z,42.805,6.029,13.3019,4.60119,2469.947,2022-1-07T04:06:02Z
2022-01-07T02:07:35Z,42.805,6.029,13.3005,4.60079,2469.96,2022-1-07T04:09:05Z
2022-01-07T02:10:38Z,42.805,6.029,13.3009,4.60080,2469.97,2022-1-07T04:12:08Z
2022-01-07T02:13:41Z,42.805,6.029,13.3011,4.60080,2469.923,2022-1-07T04:15:11Z
2022-01-07T02:16:44Z,42.805,6.029,13.3018,4.60054,2469.96,2022-1-07T04:18:14Z
2022-01-07T02:19:47Z,42.805,6.029,13.3026,4.60079,2469.97,2022-1-07T04:21:18Z
2022-01-07T02:22:50Z,42.805,6.029,13.3015,4.60053,2469.96,2022-1-07T04:24:21Z
2022-01-07T02:25:53Z,42.805,6.029,13.3015,4.60049,2469.993,2022-1-07T04:27:24Z
2022-01-07T02:28:56Z,42.805,6.029,13.3010,4.60051,2469.923,2022-1-07T04:30:27Z
2022-01-07T02:32:00Z,42.805,6.029,13.3004,4.60052,2469.947,2022-1-07T04:33:30Z
2022-01-07T02:35:03Z,42.805,6.029,13.3010,4.60084,2469.947,2022-1-07T04:36:33Z
2022-01-07T02:38:06Z,42.805,6.029,13.3010,4.60066,2469.947,2022-1-07T04:39:36Z
2022-01-07T02:41:09Z,42.805,6.029,13.3004,4.60052,2469.909,2022-1-07T04:42:39Z
2022-01-07T02:44:12Z,42.805,6.029,13.3012,4.60079,2469.96,2022-1-07T04:45:42Z
2022-01-07T02:47:15Z,42.805,6.029,13.3006,4.60067,2469.984,2022-1-07T04:48:46Z
2022-01-07T02:50:18Z,42.805,6.029,13.3007,4.60049,2469.96,2022-1-07T04:51:49Z
2022-01-07T02:53:21Z,42.805,6.029,13.3009,4.60069,2469.984,2022-1-07T04:54:52Z
2022-01-07T02:56:25Z,42.805,6.029,13.3039,4.60094,2469.96,2022-1-07T04:57:55Z
2022-01-07T02:59:28Z,42.805,6.029,13.3010,4.60086,2469.947,2022-1-07T05:00:58Z
2022-01-07T03:02:31Z,42.805,6.029,13.3024,4.60098,2469.96,2022-1-07T05:04:01Z
2022-01-07T03:05:34Z,42.805,6.029,13.3024,4.60087,2469.947,2022-1-07T05:07:04Z
2022-01-07T03:08:37Z,42.805,6.029,13.3029,4.60081,2469.97,2022-1-07T05:10:07Z
2022-01-07T03:11:40Z,42.805,6.029,13.3034,4.60084,2469.97,2022-1-07T05:13:11Z
2022-01-07T03:14:43Z,42.805,6.029,13.3020,4.60093,2469.96,2022-1-07T05:16:14Z
2022-01-07T03:17:46Z,42.805,6.029,13.3017,4.60095,2469.96,2022-1-07T05:19:17Z
2022-01-07T03:20:50Z,42.805,6.029,13.3014,4.60121,2469.96,2022-1-07T05:22:20Z
2022-01-07T03:23:53Z,42.805,6.029,13.3037,4.60097,2469.923,2022-1-07T05:25:23Z
2022-01-07T03:26:56Z,42.805,6.029,13.3020,4.60071,2469.96,2022-1-07T05:28:26Z
2022-01-07T03:29:59Z,42.805,6.029,13.3036,4.60078,2469.947,2022-1-07T05:31:29Z
2022-01-07T03:33:02Z,42.805,6.029,13.3046,4.60117,2469.96,2022-1-07T05:34:32Z
2022-01-07T03:36:05Z,42.805,6.029,13.3034,4.60113,2469.96,2022-1-07T05:37:36Z
2022-01-07T03:39:08Z,42.805,6.029,13.3030,4.60084,2469.947,2022-1-07T05:40:39Z
2022-01-07T03:42:11Z,42.805,6.029,13.3041,4.60064,2469.947,2022-1-07T05:43:42Z
2022-01-07T03:45:15Z,42.805,6.029,13.3054,4.60080,2469.984,2022-1-07T05:46:45Z
2022-01-07T03:48:18Z,42.805,6.029,13.3031,4.60132,2469.96,2022-1-07T05:49:48Z
2022-01-07T03:51:21Z,42.805,6.029,13.3029,4.60080,2469.947,2022-1-07T05:52:51Z
2022-01-07T03:54:24Z,42.805,6.029,13.3029,4.60097,2469.96,2022-1-07T05:55:54Z
2022-01-07T03:57:27Z,42.805,6.029,13.3015,4.60112,2469.97,2022-1-07T05:58:57Z
2022-01-07T04:00:30Z,42.805,6.029,13.3031,4.60114,2469.96,2022-1-07T06:02:00Z
2022-01-07T04:03:33Z,42.805,6.029,13.3048,4.60087,2469.984,2022-1-07T06:05:04Z
2022-01-07T04:06:36Z,42.805,6.029,13.3043,4.60112,2469.97,2022-1-07T06:08:07Z
2022-01-07T04:09:39Z,42.805,6.029,13.3052,4.60110,2469.96,2022-1-07T06:11:10Z
2022-01-07T04:12:43Z,42.805,6.029,13.3051,4.60094,2469.947,2022-1-07T06:14:13Z
2022-01-07T04:15:46Z,42.805,6.029,13.3050,4.60119,2469.984,2022-1-07T06:17:16Z
2022-01-07T04:18:49Z,42.805,6.029,13.3061,4.60096,2469.96,2022-1-07T06:20:19Z
2022-01-07T04:21:52Z,42.805,6.029,13.3039,4.60187,2469.97,2022-1-07T06:23:22Z
2022-01-07T04:24:55Z,42.805,6.029,13.3015,4.60087,2469.96,2022-1-07T06:26:25Z
2022-01-07T04:27:58Z,42.805,6.029,13.3052,4.60103,2469.984,2022-1-07T06:29:28Z
2022-01-07T04:31:01Z,42.805,6.029,13.3044,4.60094,2469.984,2022-1-07T06:32:32Z
2022-01-07T04:34:04Z,42.805,6.029,13.3034,4.60077,2469.923,2022-1-07T06:35:35Z
2022-01-07T04:37:08Z,42.805,6.029,13.3034,4.60054,2469.97,2022-1-07T06:38:38Z
2022-01-07T04:40:11Z,42.805,6.029,13.3043,4.60071,2469.947,2022-1-07T06:41:41Z
2022-01-07T04:43:14Z,42.805,6.029,13.3041,4.60060,2469.984,2022-1-07T06:44:44Z
2022-01-07T04:46:17Z,42.805,6.029,13.3030,4.60044,2469.984,2022-1-07T06:47:47Z
2022-01-07T04:49:20Z,42.805,6.029,13.3035,4.60063,2470.007,2022-1-07T06:50:50Z
2022-01-07T04:52:23Z,42.805,6.029,13.3034,4.60039,2469.984,2022-1-07T06:53:53Z
2022-01-07T04:55:26Z,42.805,6.029,13.3030,4.60054,2469.97,2022-1-07T06:56:57Z
2022-01-07T04:58:29Z,42.805,6.029,13.3039,4.60048,2469.947,2022-1-07T07:00:00Z
2022-01-07T05:01:32Z,42.805,6.029,13.3022,4.60046,2469.984,2022-1-07T07:03:03Z
2022-01-07T05:04:36Z,42.805,6.029,13.3047,4.60046,2469.97,2022-1-07T07:06:06Z
2022-01-07T05:07:39Z,42.805,6.029,13.3041,4.60047,2469.947,2022-1-07T07:09:09Z
2022-01-07T05:10:42Z,42.805,6.029,13.3041,4.60067,2469.984,2022-1-07T07:12:12Z
2022-01-07T05:13:45Z,42.805,6.029,13.3039,4.60046,2470.007,2022-1-07T07:15:15Z
2022-01-07T05:16:48Z,42.805,6.029,13.3033,4.60056,2470.017,2022-1-07T07:18:18Z
2022-01-07T05:19:51Z,42.805,6.029,13.3034,4.60051,2469.96,2022-1-07T07:21:21Z
2022-01-07T05:22:54Z,42.805,6.029,13.3044,4.60044,2469.96,2022-1-07T07:24:25Z
2022-01-07T05:25:57Z,42.805,6.029,13.3029,4.60053,2469.984,2022-1-07T07:27:28Z
2022-01-07T05:29:01Z,42.805,6.029,13.3031,4.60043,2469.993,2022-1-07T07:30:31Z
2022-01-07T05:32:04Z,42.805,6.029,13.3036,4.60049,2470.007,2022-1-07T07:33:34Z
2022-01-07T05:35:07Z,42.805,6.029,13.3029,4.60047,2469.993,2022-1-07T07:36:37Z
2022-01-07T05:38:10Z,42.805,6.029,13.3026,4.60060,2469.97,2022-1-07T07:39:40Z
2022-01-07T05:41:13Z,42.805,6.029,13.3029,4.60052,2469.984,2022-1-07T07:42:43Z
2022-01-07T05:44:16Z,42.805,6.029,13.3036,4.60052,2469.993,2022-1-07T07:45:46Z
2022-01-07T05:47:19Z,42.805,6.029,13.3034,4.60043,2469.993,2022-1-07T07:48:50Z
2022-01-07T05:50:22Z,42.805,6.029,13.3023,4.60042,2470.007,2022-1-07T07:51:53Z
2022-01-07T05:53:25Z,42.805,6.029,13.3022,4.60045,2469.993,2022-1-07T07:54:56Z
2022-01-07T05:56:29Z,42.805,6.029,13.3027,4.60045,2470.017,2022-1-07T07:57:59Z
2022-01-07T05:59:32Z,42.805,6.029,13.3029,4.60045,2470.007,2022-1-07T08:01:02Z
2022-01-07T06:02:35Z,42.805,6.029,13.3022,4.60044,2470.03,2022-1-07T08:04:05Z
2022-01-07T06:05:38Z,42.805,6.029,13.3026,4.60045,2470.017,2022-1-07T08:07:08Z
2022-01-07T06:08:41Z,42.805,6.029,13.3026,4.60061,2470.017,2022-1-07T08:10:11Z
2022-01-07T06:11:44Z,42.805,6.029,13.3023,4.60064,2470.053,2022-1-07T08:13:14Z
2022-01-07T06:14:47Z,42.805,6.029,13.3022,4.60035,2470.04,2022-1-07T08:16:18Z
2022-01-07T06:17:50Z,42.805,6.029,13.3018,4.60052,2470.03,2022-1-07T08:19:21Z
2022-01-07T06:20:54Z,42.805,6.029,13.3021,4.60052,2470.017,2022-1-07T08:22:24Z
2022-01-07T06:23:57Z,42.805,6.029,13.3024,4.60069,2470.04,2022-1-07T08:25:27Z
2022-01-07T06:27:00Z,42.805,6.029,13.3017,4.60063,2470.063,2022-1-07T08:28:30Z
2022-01-07T06:30:03Z,42.805,6.029,13.3032,4.60064,2470.053,2022-1-07T08:31:33Z
2022-01-07T06:33:06Z,42.805,6.029,13.3033,4.60036,2470.04,2022-1-07T08:34:36Z
2022-01-07T06:36:09Z,42.805,6.029,13.3033,4.60045,2470.053,2022-1-07T08:37:39Z
2022-01-07T06:39:12Z,42.805,6.029,13.3028,4.60046,2470.017,2022-1-07T08:40:43Z
2022-01-07T06:42:15Z,42.805,6.029,13.3031,4.60049,2470.053,2022-1-07T08:43:46Z
2022-01-07T06:45:18Z,42.805,6.029,13.3031,4.60080,2470.063,2022-1-07T08:46:49Z
2022-01-07T06:48:22Z,42.805,6.029,13.3043,4.60057,2470.04,2022-1-07T08:49:52Z
2022-01-07T06:51:25Z,42.805,6.029,13.3019,4.60076,2470.1,2022-1-07T08:52:55Z
2022-01-07T06:54:28Z,42.805,6.029,13.3039,4.60074,2470.1,2022-1-07T08:55:58Z
2022-01-07T06:57:31Z,42.805,6.029,13.3041,4.60107,2470.124,2022-1-07T08:59:01Z
2022-01-07T07:00:34Z,42.805,6.029,13.3042,4.60089,2470.124,2022-1-07T09:02:04Z
2022-01-07T07:03:37Z,42.805,6.029,13.3043,4.60063,2470.1,2022-1-07T09:05:08Z
2022-01-07T07:06:40Z,42.805,6.029,13.3026,4.60038,2470.087,2022-1-07T09:08:11Z
2022-01-07T07:09:43Z,42.805,6.029,13.3038,4.60097,2470.11,2022-1-07T09:11:14Z
2022-01-07T07:12:47Z,42.805,6.029,13.3037,4.60092,2470.124,2022-1-07T09:14:17Z
2022-01-07T07:15:50Z,42.805,6.029,13.3041,4.60135,2470.124,2022-1-07T09:17:20Z
2022-01-07T07:18:53Z,42.805,6.029,13.3039,4.60094,2470.11,2022-1-07T09:20:23Z
2022-01-07T07:21:56Z,42.805,6.029,13.3053,4.60087,2470.11,2022-1-07T09:23:26Z
2022-01-07T07:24:59Z,42.805,6.029,13.3076,4.60046,2470.124,2022-1-07T09:26:29Z
2022-01-07T07:28:02Z,42.805,6.029,13.3046,4.60106,2470.133,2022-1-07T09:29:32Z
2022-01-07T07:31:05Z,42.805,6.029,13.3065,4.60081,2470.147,2022-1-07T09:32:36Z
2022-01-07T07:34:08Z,42.805,6.029,13.3063,4.60040,2470.147,2022-1-07T09:35:39Z
2022-01-07T07:37:12Z,42.805,6.029,13.3047,4.60079,2470.171,2022-1-07T09:38:42Z
2022-01-07T07:40:15Z,42.805,6.029,13.3042,4.60087,2470.147,2022-1-07T09:41:45Z
2022-01-07T07:43:18Z,42.805,6.029,13.3019,4.60050,2470.143,2022-1-07T09:44:48Z
2022-01-07T07:46:21Z,42.805,6.029,13.3030,4.60067,2470.18,2022-1-07T09:47:51Z
2022-01-07T07:49:24Z,42.805,6.029,13.3007,4.60071,2470.171,2022-1-07T09:50:54Z
2022-01-07T07:52:27Z,42.805,6.029,13.3026,4.60136,2470.156,2022-1-07T09:53:57Z
2022-01-07T07:55:30Z,42.805,6.029,13.3042,4.60121,2470.217,2022-1-07T09:57:01Z
2022-01-07T07:58:33Z,42.805,6.029,13.3063,4.60108,2470.18,2022-1-07T10:00:04Z
2022-01-07T08:01:36Z,42.805,6.029,13.3068,4.60114,2470.203,2022-1-07T10:03:07Z
2022-01-07T08:04:40Z,42.805,6.029,13.3076,4.60122,2470.18,2022-1-07T10:06:10Z
2022-01-07T08:07:43Z,42.805,6.029,13.3015,4.60113,2470.217,2022-1-07T10:09:13Z
2022-01-07T08:10:46Z,42.805,6.029,13.3063,4.60125,2470.24,2022-1-07T10:12:16Z
2022-01-07T08:13:49Z,42.805,6.029,13.3041,4.60122,2470.18,2022-1-07T10:15:19Z
2022-01-07T08:16:52Z,42.805,6.029,13.3050,4.60105,2470.194,2022-1-07T10:18:22Z
2022-01-07T08:19:55Z,42.805,6.029,13.3063,4.60086,2470.203,2022-1-07T10:21:26Z
2022-01-07T08:22:58Z,42.805,6.029,13.3061,4.60052,2470.203,2022-1-07T10:24:29Z
2022-01-07T08:26:01Z,42.805,6.029,13.3027,4.60067,2470.24,2022-1-07T10:27:32Z
2022-01-07T08:29:05Z,42.805,6.029,13.3054,4.60044,2470.227,2022-1-07T10:30:35Z
2022-01-07T08:32:08Z,42.805,6.029,13.3035,4.60039,2470.227,2022-1-07T10:33:38Z
2022-01-07T08:35:11Z,42.805,6.029,13.3019,4.60050,2470.25,2022-1-07T10:36:41Z
2022-01-07T08:38:14Z,42.805,6.029,13.3033,4.60040,2470.25,2022-1-07T10:39:44Z
2022-01-07T08:41:17Z,42.805,6.029,13.3025,4.60079,2470.227,2022-1-07T10:42:47Z
2022-01-07T08:44:20Z,42.805,6.029,13.3042,4.60047,2470.227,2022-1-07T10:45:51Z
2022-01-07T08:47:23Z,42.805,6.029,13.3029,4.60074,2470.264,2022-1-07T10:48:54Z
2022-01-07T08:50:26Z,42.805,6.029,13.3034,4.60057,2470.264,2022-1-07T10:51:57Z
2022-01-07T08:53:30Z,42.805,6.029,13.3011,4.60076,2470.264,2022-1-07T10:55:00Z
2022-01-07T08:56:33Z,42.805,6.029,13.3022,4.60054,2470.25,2022-1-07T10:58:03Z
2022-01-07T08:59:36Z,42.805,6.029,13.3020,4.60052,2470.264,2022-1-07T11:01:06Z
2022-01-07T09:02:39Z,42.805,6.029,13.3029,4.60062,2470.273,2022-1-07T11:04:09Z
2022-01-07T09:05:42Z,42.805,6.029,13.3037,4.60047,2470.31,2022-1-07T11:07:12Z
2022-01-07T09:08:45Z,42.805,6.029,13.3029,4.60052,2470.287,2022-1-07T11:10:15Z
2022-01-07T09:11:48Z,42.805,6.029,13.3043,4.60068,2470.31,2022-1-07T11:13:19Z
2022-01-07T09:14:51Z,42.805,6.029,13.3024,4.60060,2470.273,2022-1-07T11:16:22Z
2022-01-07T09:17:54Z,42.805,6.029,13.3024,4.60046,2470.287,2022-1-07T11:19:25Z
2022-01-07T09:20:58Z,42.805,6.029,13.3036,4.60053,2470.31,2022-1-07T11:22:28Z
2022-01-07T09:24:01Z,42.805,6.029,13.3024,4.60056,2470.32,2022-1-07T11:25:31Z
2022-01-07T09:27:04Z,42.805,6.029,13.3014,4.60067,2470.32,2022-1-07T11:28:34Z
2022-01-07T09:30:07Z,42.805,6.029,13.3024,4.60066,2470.273,2022-1-07T11:31:37Z
2022-01-07T09:33:10Z,42.805,6.029,13.3020,4.60067,2470.32,2022-1-07T11:34:40Z
2022-01-07T09:36:13Z,42.805,6.029,13.3028,4.60060,2470.32,2022-1-07T11:37:44Z
2022-01-07T09:39:16Z,42.805,6.029,13.3024,4.60084,2470.334,2022-1-07T11:40:47Z
2022-01-07T09:42:20Z,42.805,6.029,13.3043,4.60059,2470.343,2022-1-07T11:43:50Z
2022-01-07T09:45:23Z,42.805,6.029,13.3025,4.60073,2470.297,2022-1-07T11:46:53Z
2022-01-07T09:48:26Z,42.805,6.029,13.3018,4.60046,2470.297,2022-1-07T11:49:56Z
2022-01-07T09:51:29Z,42.805,6.029,13.3046,4.60067,2470.343,2022-1-07T11:52:59Z
2022-01-07T09:54:32Z,42.805,6.029,13.3017,4.60058,2470.334,2022-1-07T11:56:02Z
2022-01-07T09:57:35Z,42.805,6.029,13.3031,4.60054,2470.32,2022-1-07T11:59:05Z
2022-01-07T10:00:38Z,42.805,6.029,13.3030,4.60049,2470.357,2022-1-07T12:02:09Z
2022-01-07T10:03:41Z,42.805,6.029,13.3019,4.60070,2470.357,2022-1-07T12:05:12Z
2022-01-07T10:06:44Z,42.805,6.029,13.3031,4.60070,2470.357,2022-1-07T12:08:15Z
2022-01-07T10:09:48Z,42.805,6.029,13.3068,4.60077,2470.334,2022-1-07T12:11:18Z
2022-01-07T10:12:51Z,42.805,6.029,13.3063,4.60104,2470.334,2022-1-07T12:14:21Z
2022-01-07T10:15:54Z,42.805,6.029,13.3061,4.60057,2470.366,2022-1-07T12:17:24Z
2022-01-07T10:18:57Z,42.805,6.029,13.3064,4.60134,2470.343,2022-1-07T12:20:27Z
2022-01-07T10:22:00Z,42.805,6.029,13.3066,4.60090,2470.343,2022-1-07T12:23:30Z
2022-01-07T10:25:03Z,42.805,6.029,13.3058,4.60069,2470.334,2022-1-07T12:26:34Z
2022-01-07T10:28:06Z,42.805,6.029,13.3070,4.60069,2470.357,2022-1-07T12:29:37Z
2022-01-07T10:31:09Z,42.805,6.029,13.3043,4.60084,2470.334,2022-1-07T12:32:40Z
2022-01-07T10:34:13Z,42.805,6.029,13.3036,4.60074,2470.343,2022-1-07T12:35:43Z
2022-01-07T10:37:16Z,42.805,6.029,13.3046,4.60047,2470.357,2022-1-07T12:38:46Z
2022-01-07T10:40:19Z,42.805,6.029,13.3013,4.60067,2470.366,2022-1-07T12:41:49Z
2022-01-07T10:43:22Z,42.805,6.029,13.3034,4.60088,2470.357,2022-1-07T12:44:52Z
2022-01-07T10:46:25Z,42.805,6.029,13.3050,4.60079,2470.38,2022-1-07T12:47:55Z
2022-01-07T10:49:28Z,42.805,6.029,13.3033,4.60054,2470.343,2022-1-07T12:50:59Z
2022-01-07T10:52:31Z,42.805,6.029,13.3046,4.60067,2470.38,2022-1-07T12:54:02Z
2022-01-07T10:55:34Z,42.805,6.029,13.3035,4.60062,2470.366,2022-1-07T12:57:05Z
2022-01-07T10:58:38Z,42.805,6.029,13.3018,4.60110,2470.357,2022-1-07T13:00:08Z
2022-01-07T11:01:41Z,42.805,6.029,13.3037,4.60073,2470.357,2022-1-07T13:03:11Z
2022-01-07T11:04:44Z,42.805,6.029,13.3037,4.60084,2470.366,2022-1-07T13:06:14Z
2022-01-07T11:07:47Z,42.805,6.029,13.3034,4.60068,2470.404,2022-1-07T13:09:17Z
2022-01-07T11:10:50Z,42.805,6.029,13.3050,4.60067,2470.343,2022-1-07T13:12:20Z
2022-01-07T11:13:53Z,42.805,6.029,13.3056,4.60040,2470.343,2022-1-07T13:15:24Z
2022-01-07T11:16:56Z,42.805,6.029,13.3043,4.60072,2470.366,2022-1-07T13:18:27Z
2022-01-07T11:19:59Z,42.805,6.029,13.3042,4.60077,2470.38,2022-1-07T13:21:30Z
2022-01-07T11:23:03Z,42.805,6.029,13.3025,4.60055,2470.353,2022-1-07T13:24:33Z
2022-01-07T11:26:06Z,42.805,6.029,13.3023,4.60107,2470.343,2022-1-07T13:27:36Z
2022-01-07T11:29:09Z,42.805,6.029,13.3070,4.60122,2470.38,2022-1-07T13:30:39Z
2022-01-07T11:32:12Z,42.805,6.029,13.3073,4.60108,2470.366,2022-1-07T13:33:42Z
2022-01-07T11:35:15Z,42.805,6.029,13.3054,4.60075,2470.343,2022-1-07T13:36:45Z
2022-01-07T11:38:18Z,42.805,6.029,13.3071,4.60102,2470.343,2022-1-07T13:39:49Z
2022-01-07T11:41:21Z,42.805,6.029,13.3065,4.60062,2470.366,2022-1-07T13:42:52Z
2022-01-07T11:44:24Z,42.805,6.029,13.3041,4.60110,2470.427,2022-1-07T13:45:55Z
2022-01-07T11:47:28Z,42.805,6.029,13.3045,4.60085,2470.357,2022-1-07T13:48:58Z
2022-01-07T11:50:31Z,42.805,6.029,13.3062,4.60082,2470.32,2022-1-07T13:52:01Z
2022-01-07T11:53:34Z,42.805,6.029,13.3077,4.60076,2470.366,2022-1-07T13:55:04Z
2022-01-07T11:56:37Z,42.805,6.029,13.3073,4.60086,2470.343,2022-1-07T13:58:07Z
2022-01-07T11:59:40Z,42.805,6.029,13.3049,4.60099,2470.357,2022-1-07T14:01:10Z
2022-01-07T12:02:43Z,42.805,6.029,13.3015,4.60068,2470.38,2022-1-07T14:04:14Z
2022-01-07T12:05:46Z,42.805,6.029,13.3047,4.60103,2470.357,2022-1-07T14:07:17Z
2022-01-07T12:08:49Z,42.805,6.029,13.3048,4.60124,2470.343,2022-1-07T14:10:20Z
2022-01-07T12:11:53Z,42.805,6.029,13.3030,4.60110,2470.366,2022-1-07T14:13:23Z
2022-01-07T12:14:56Z,42.805,6.029,13.3038,4.60085,2470.334,2022-1-07T14:16:26Z
2022-01-07T12:17:59Z,42.805,6.029,13.3078,4.60096,2470.306,2022-1-07T14:19:29Z
2022-01-07T12:21:02Z,42.805,6.029,13.3056,4.60044,2470.357,2022-1-07T14:22:32Z
2022-01-07T12:24:05Z,42.805,6.029,13.3052,4.60135,2470.357,2022-1-07T14:25:35Z
2022-01-07T12:27:08Z,42.805,6.029,13.3063,4.60099,2470.334,2022-1-07T14:28:39Z
2022-01-07T12:30:11Z,42.805,6.029,13.3074,4.60053,2470.32,2022-1-07T14:31:42Z
2022-01-07T12:33:14Z,42.805,6.029,13.3048,4.60114,2470.297,2022-1-07T14:34:45Z
2022-01-07T12:36:18Z,42.805,6.029,13.3062,4.60072,2470.334,2022-1-07T14:37:48Z
2022-01-07T12:39:21Z,42.805,6.029,13.3052,4.60059,2470.357,2022-1-07T14:40:51Z
2022-01-07T12:42:24Z,42.805,6.029,13.3034,4.60084,2470.32,2022-1-07T14:43:54Z
2022-01-07T12:45:27Z,42.805,6.029,13.3045,4.60109,2470.343,2022-1-07T14:46:57Z
2022-01-07T12:48:30Z,42.805,6.029,13.3053,4.60134,2470.32,2022-1-07T14:50:00Z
2022-01-07T12:51:33Z,42.805,6.029,13.3075,4.60094,2470.32,2022-1-07T14:53:04Z
2022-01-07T12:54:36Z,42.805,6.029,13.3059,4.60119,2470.334,2022-1-07T14:56:07Z
2022-01-07T12:57:39Z,42.805,6.029,13.3067,4.60112,2470.32,2022-1-07T14:59:10Z
2022-01-07T13:00:42Z,42.805,6.029,13.3056,4.60074,2470.31,2022-1-07T15:02:13Z
2022-01-07T13:03:46Z,42.805,6.029,13.3054,4.60122,2470.334,2022-1-07T15:05:16Z
2022-01-07T13:06:49Z,42.805,6.029,13.3046,4.60096,2470.31,2022-1-07T15:08:19Z
2022-01-07T13:09:52Z,42.805,6.029,13.3031,4.60102,2470.297,2022-1-07T15:11:22Z
2022-01-07T13:12:55Z,42.805,6.029,13.3081,4.60129,2470.297,2022-1-07T15:14:25Z
2022-01-07T13:15:58Z,42.805,6.029,13.3040,4.60114,2470.297,2022-1-07T15:17:28Z
2022-01-07T13:19:01Z,42.805,6.029,13.3054,4.60111,2470.343,2022-1-07T15:20:32Z
2022-01-07T13:22:04Z,42.805,6.029,13.3079,4.60082,2470.31,2022-1-07T15:23:35Z
2022-01-07T13:25:07Z,42.805,6.029,13.3064,4.60111,2470.32,2022-1-07T15:26:38Z
2022-01-07T13:28:11Z,42.805,6.029,13.3062,4.60104,2470.31,2022-1-07T15:29:41Z
2022-01-07T13:31:14Z,42.805,6.029,13.3045,4.60105,2470.31,2022-1-07T15:32:44Z
2022-01-07T13:34:17Z,42.805,6.029,13.3051,4.60138,2470.343,2022-1-07T15:35:47Z
2022-01-07T13:37:20Z,42.805,6.029,13.3051,4.60105,2470.287,2022-1-07T15:38:50Z
2022-01-07T13:40:23Z,42.805,6.029,13.3041,4.60107,2470.31,2022-1-07T15:41:53Z
2022-01-07T13:43:26Z,42.805,6.029,13.3056,4.60126,2470.297,2022-1-07T15:44:57Z
2022-01-07T13:46:29Z,42.805,6.029,13.3063,4.60102,2470.287,2022-1-07T15:48:00Z
2022-01-07T13:49:32Z,42.805,6.029,13.3016,4.60114,2470.264,2022-1-07T15:51:03Z
2022-01-07T13:52:36Z,42.805,6.029,13.3039,4.60121,2470.297,2022-1-07T15:54:06Z
2022-01-07T13:55:39Z,42.805,6.029,13.3048,4.60102,2470.357,2022-1-07T15:57:09Z
2022-01-07T13:58:42Z,42.805,6.029,13.3068,4.60124,2470.273,2022-1-07T16:00:12Z
2022-01-07T14:01:45Z,42.805,6.029,13.3042,4.60090,2470.297,2022-1-07T16:03:15Z
2022-01-07T14:04:48Z,42.805,6.029,13.3029,4.60089,2470.297,2022-1-07T16:06:18Z
2022-01-07T14:07:51Z,42.805,6.029,13.3025,4.60135,2470.273,2022-1-07T16:09:22Z
2022-01-07T14:10:54Z,42.805,6.029,13.3032,4.60067,2470.26,2022-1-07T16:12:25Z
2022-01-07T14:13:57Z,42.805,6.029,13.3029,4.60087,2470.287,2022-1-07T16:15:28Z
2022-01-07T14:17:01Z,42.805,6.029,13.3041,4.60110,2470.273,2022-1-07T16:18:31Z
2022-01-07T14:20:04Z,42.805,6.029,13.3047,4.60093,2470.273,2022-1-07T16:21:34Z
2022-01-07T14:23:07Z,42.805,6.029,13.3032,4.60097,2470.297,2022-1-07T16:24:37Z
2022-01-07T14:26:10Z,42.805,6.029,13.3036,4.60094,2470.24,2022-1-07T16:27:40Z
2022-01-07T14:29:13Z,42.805,6.029,13.3029,4.60092,2470.273,2022-1-07T16:30:43Z
2022-01-07T14:32:16Z,42.805,6.029,13.3039,4.60062,2470.31,2022-1-07T16:33:47Z
2022-01-07T14:35:19Z,42.805,6.029,13.3048,4.60063,2470.25,2022-1-07T16:36:50Z
2022-01-07T14:38:22Z,42.805,6.029,13.3029,4.60085,2470.31,2022-1-07T16:39:53Z
2022-01-07T14:41:26Z,42.805,6.029,13.3051,4.60054,2470.31,2022-1-07T16:42:56Z
2022-01-07T14:44:29Z,42.805,6.029,13.3009,4.60077,2470.25,2022-1-07T16:45:59Z
2022-01-07T14:47:32Z,42.805,6.029,13.3031,4.60114,2470.273,2022-1-07T16:49:02Z
2022-01-07T14:50:35Z,42.805,6.029,13.3037,4.60128,2470.273,2022-1-07T16:52:05Z
2022-01-07T14:53:38Z,42.805,6.029,13.3067,4.60079,2470.24,2022-1-07T16:55:08Z
2022-01-07T14:56:41Z,42.805,6.029,13.3034,4.60108,2470.264,2022-1-07T16:58:12Z
2022-01-07T14:59:44Z,42.805,6.029,13.3028,4.60120,2470.25,2022-1-07T17:01:15Z
2022-01-07T15:02:47Z,42.805,6.029,13.3024,4.60097,2470.264,2022-1-07T17:04:18Z
2022-01-07T15:05:51Z,42.805,6.029,13.3040,4.60097,2470.264,2022-1-07T17:07:21Z
2022-01-07T15:08:54Z,42.805,6.029,13.3046,4.60161,2470.287,2022-1-07T17:10:24Z
2022-01-07T15:11:57Z,42.805,6.029,13.3063,4.60127,2470.273,2022-1-07T17:13:27Z
2022-01-07T15:15:00Z,42.805,6.029,13.3045,4.60103,2470.227,2022-1-07T17:16:30Z